Regional Weather Roundup
Issued by NWS State College, PA

Home | Current Version | Previous Version | Graphics & Text | Print | Product List | Glossary On
Versions: 1 2 3 4 5 6 7 8 9 10 11 12 13 14 15 16 17 18 19 20 21 22 23 24 25 26 27 28 29 30 31 32 33 34 35 36 37 38 39 40 41 42 43 44 45 46 47 48 49 50
000
ASUS41 KCTP 220603
RWRCTP

REGIONAL WEATHER ROUNDUP
NATIONAL WEATHER SERVICE STATE COLLEGE PA
200 AM EDT FRI AUG 22 2014

Note: "fair" indicates few or no clouds below 12,000 feet with no
significant weather and/or obstructions to visibility.

* = STATION THAT DOES NOT REPORT PRECIPITATION /E.G. RAIN...SNOW...ETC/
    THUNDER OR FOG.

PAZ002>004-007>009-013>016-020>023-029>032-220700-
WESTERN PENNSYLVANIA

CITY           SKY/WX    TMP DP  RH WIND       PRES   REMARKS
ERIE           MOCLDY    72  68  87 S5        29.99S
MEADVILLE      FAIR      68  66  93 SW5       30.04R
FRANKLIN*      CLOUDY    66  64  94 SW6       30.05S
NEW CASTLE     NOT AVBL
BEAVER COUNTY  NOT AVBL
BUTLER*        CLOUDY    68  64  88 CALM      30.06S
PITTSBURGH INT CLOUDY    69  67  93 CALM      30.03F
PITTSBURGH     FAIR      68  66  93 S6        30.03F FOG
INDIANA*       CLOUDY    70  68  94 W5        30.09S
LATROBE        CLEAR     70  70 100 S8        30.05F
WASHINGTON CO* FAIR      66  64  94 CALM      30.05F
$$

PAZ004>006-010>012-017>019-024>028-033>037-041-042-045-046-049>053-220700-
CENTRAL PENNSYLVANIA

CITY           SKY/WX    TMP DP  RH WIND       PRES   REMARKS
BRADFORD       FOG       66  65  96 CALM      30.05F VSB 1
DUBOIS         CLOUDY    68  67  96 W9        30.04F FOG
CLEARFIELD     MOCLDY    66  65  96 S3        30.03F FOG
JOHNSTOWN      CLOUDY    67  63  87 W8        30.08F
ALTOONA        FAIR      66  64  93 CALM      30.05F
STATE COLLEGE  CLOUDY    66  65  97 SW5       30.02F FOG
WILLIAMSPORT   FAIR      67  65  93 NW3       29.98S
SELINSGROVE    FOG       68  67  96 CALM      30.00S VSB 1
FT INDIANTOWN  CLOUDY    67  67 100 CALM      30.00S
CAPITAL CITY   FAIR      65  64  97 SW3       29.99S FOG
HARRISBURG     FAIR      69  66  90 N3        29.98S FOG
YORK           FOG       63  62  97 CALM      29.99S VSB 1/2
$$

PAZ038>040-043-044-047-048-054-055-060>062-067>071-220700-
EASTERN PENNSYLVANIA

CITY           SKY/WX    TMP DP  RH WIND       PRES   REMARKS
SCRANTON       LGT RAIN  70  66  88 CALM      30.00F
MOUNT POCONO   HVY RAIN  63  61  93 CALM      30.06R FOG
ALLENTOWN      LGT RAIN  68  65  90 E5        30.01F
QUAKERTOWN*    CLOUDY    66  66 100 MISG      30.02F
READING        LGT RAIN  73  70  90 N3        29.98S
LANCASTER      FAIR      69  67  93 NW5       29.99S FOG
COATESVILLE    FOG       72  72 100 CALM      30.00F VSB 1/2
POTTSTOWN      LGT RAIN  68  65  90 E5        30.01S
BLUE BELL      CLOUDY    70  66  88 NE9       29.99F
DOYLESTOWN     LGT RAIN  66  66 100 CALM      30.00F
WILLOW GROVE   NOT AVBL
NORTH PHILA    CLOUDY    70  65  84 E10       30.01F
PHILADELPHIA   CLOUDY    73  68  84 NE6       29.98F
$$


USA.gov is the U.S. government's official web portal to all federal, state and local government web resources and services.